Location: Aalen
(48.8330°N, 10.1000°E)
Time: 17:50:32
(UTC+01:00)

UWE-3 - Pass Details

Date: 07 October 2025
Orbit: 548 x 618 km, 97.8° (Epoch: 12 November)

Event Time Altitude Azimuth Distance (km) Brightness Sun altitude
Rises 04:04:51 0° 14° (NNE) 2,741 ? -32.8°
Reaches altitude 10° 04:06:58 10° 15° (NNE) 1,847 ? -32.5°
Enters shadow 04:07:45 15° 15° (NNE) 1,529 ? -32.4°
